This is the latest recevied weather packets stored in our database for station/object CT4TX-11. If no packets are shown the sender has not sent any weather packets the latest 10 day(s).
| Time | Temp. | Humidity | Pressure | Rain* | Wind** | Luminosity | Snow |
|---|---|---|---|---|---|---|---|
| 1787885458 | 27.78° C | 40% | 1007.1 hPa | - | - | - | - |
| 1787884559 | 27.78° C | 40% | 1007.1 hPa | - | - | - | - |
| 1787883658 | 27.78° C | 40% | 1007.1 hPa | - | - | - | - |
| 1787882758 | 27.78° C | 40% | 1007.1 hPa | - | - | - | - |
| 1787881858 | 27.78° C | 40% | 1006.7 hPa | - | - | - | - |
| 1787880957 | 27.78° C | 40% | 1007 hPa | - | - | - | - |
| 1787880057 | 27.78° C | 40% | 1006.9 hPa | - | - | - | - |
| 1787879157 | 27.78° C | 39% | 1006.8 hPa | - | - | - | - |
| 1787878257 | 27.78° C | 39% | 1006.8 hPa | - | - | - | - |
| 1787877356 | 27.78° C | 40% | 1006.7 hPa | - | - | - | - |
| 1787876456 | 27.78° C | 40% | 1006.8 hPa | - | - | - | - |
| 1787875556 | 27.78° C | 39% | 1006.8 hPa | - | - | - | - |
| 1787874656 | 27.78° C | 40% | 1006.7 hPa | - | - | - | - |
| 1787873755 | 27.78° C | 39% | 1006.8 hPa | - | - | - | - |
| 1787872855 | 27.78° C | 39% | 1006.9 hPa | - | - | - | - |
| 1787871955 | 27.22° C | 40% | 1006.8 hPa | - | - | - | - |
| 1787871055 | 26.67° C | 41% | 1006.7 hPa | - | - | - | - |
| 1787870155 | 25.56° C | 44% | 1006.4 hPa | - | - | - | - |
| 1787869254 | 27.22° C | 41% | 1006.5 hPa | - | - | - | - |
| 1787868353 | 26.11° C | 42% | 1006.4 hPa | - | - | - | - |
| 1787867458 | 26.67° C | 41% | 1006.2 hPa | - | - | - | - |
| 1787866561 | 27.22° C | 40% | 1006.3 hPa | - | - | - | - |
| 1787865658 | 27.78° C | 40% | 1006.2 hPa | - | - | - | - |
| 1787864758 | 27.78° C | 40% | 1006 hPa | - | - | - | - |
| 1787863857 | 28.33° C | 39% | 1005.9 hPa | - | - | - | - |
* Rain since midnight (hover to see other rain measurements)
** Current wind speed in m/s (hover to see current wind gust speed)